Hourly Data Report for June 01, 2021

FISHER BRANCH (AUT)
MANITOBA
Current Station Operator: ECCC - MSC

51°05'00.100" N
97°33'16.200" W
253.00 m
50309J6
71442
WSZ

Download Data

Hourly Data (June 2021)
Hourly Data Report for June 1, 2021
TIME
LST
Temp Definition
°C
Dew Point Definition
°C
Rel Hum Definition
%
Precip. Amount Definition
mm

Wind Dir Definition
10's deg

Wind Spd Definition
km/h
Visibility Definition
km
Stn Press Definition
kPa
Hmdx Definition


Wind Chill Definition


Weather Definition


00:00 14.4 -2.4 31 0.0 18 12   98.62     LegendNANA
01:00 13.5 -2.0 34 0.0 19 10   98.61     LegendNANA
02:00 14.7 0.1 37 0.0 19 13   98.58     LegendNANA
03:00 14.6 0.3 38 0.0 20 12   98.54     LegendNANA
04:00 15.7 1.8 39 0.0 22 13   98.52     LegendNANA
05:00 15.4 1.5 39 0.0 21 9   98.50     LegendNANA
06:00 16.2 1.3 36 0.0 20 11   98.48     LegendNANA
07:00 19.7 0.5 28 0.0 23 13   98.45     LegendNANA
08:00 20.1 1.0 28 0.0 23 12   98.43     LegendNANA
09:00 22.0 1.5 26 0.0 22 11   98.40     LegendNANA
10:00 25.5 2.3 22 0.0 19 15   98.34     LegendNANA
11:00 27.0 -1.3 16 0.0 23 19   98.28 25   LegendNANA
12:00 26.7 2.4 21 0.0 20 25   98.24 25   LegendNANA
13:00 24.9 4.4 27 0.0 23 17   98.24     LegendNANA
14:00 28.0 4.0 22 0.0 22 22   98.14 27   LegendNANA
15:00 27.6 4.9 24 0.0 27 23   98.12 27   LegendNANA
16:00 26.4 5.0 25 0.0 26 21   98.13 26   LegendNANA
17:00 24.1 7.3 34 0.0 24 26   98.17     LegendNANA
18:00 23.9 5.5 30 0.0 26 25   98.18     LegendNANA
19:00 23.8 4.7 29 0.0 26 18   98.18     LegendNANA
20:00 18.9 7.2 47 0.0 34 16   98.21     LegendNANA
21:00 15.7 7.2 57 0.0 33 6   98.27     LegendNANA
22:00 14.1 7.4 64 0.0 30 9   98.31     LegendNANA
23:00 11.5 6.6 72 0.0 31 9   98.28     LegendNANA

Notes on Data Quality.

Legend

  • E = Estimated
  • M = Missing
  • NA = Not Available*
  • [empty] = Indicates an unobserved value
Date modified: